Weather History for KFME - January, 2013

Change the Weather History Date:

Monday, January 7, 2013

  Actual Average (KBWI) Record (KBWI)
Temperature  
Mean Temperature 35 °F 33 °F  
Max Temperature 46 °F 41 °F 74 °F (1907)
Min Temperature 24 °F 25 °F 3 °F (2014)
Degree Days  
Heating Degree Days 30 32  
Month to date heating degree days 224  
Since 1 July heating degree days 2005  
Cooling Degree Days 0 0  
Month to date cooling degree days 0  
Year to date cooling degree days 0  
Moisture  
Dew Point 26 °F    
Average Humidity 63    
Maximum Humidity 93    
Minimum Humidity 43    
Precipitation  
Precipitation 0.00 in 0.09 in 2.51 in (1988)
Month to date precipitation 0.67  
Year to date precipitation 0.67  
Snow  
Snow 0.00 in 0.20 in 15.80 in (1996)
Month to date snowfall 1.1  
Since 1 July snowfall 4.5  
Snow Depth -    
Sea Level Pressure  
Sea Level Pressure 30.37 in    
Wind  
Wind Speed 4 mph (NW)    
Max Wind Speed 13 mph    
Max Gust Speed 21 mph    
Visibility 10 miles    
Events      
T = Trace of Precipitation, MM = Missing Value Source: NWS Daily Summary

Daily Weather History Graph

Daily Weather History Graph

Search for Another Location

Airport or City:

Trip Planner

Search our weather history database for the weather conditions in past years. The results will help you decide how hot, cold, wet, or windy it might be!

Date:

Astronomy

Jan. 07, 2013 Rise Set
Actual Time 7:26 AM EST 5:00 PM EST
Civil Twilight 6:56 AM EST 5:30 PM EST
Nautical Twilight 6:23 AM EST 6:03 PM EST
Astronomical Twilight 5:51 AM EST 6:36 PM EST
Moon 2:48 AM EST (1/7) 1:09 PM EST (1/7)
Length of Visible Light 10h 33m
Length of Day
9h 34m
Waning Crescent, 23% of the Moon is Illuminated
Jan 7
Waning Crescent
Jan 11
New
Jan 18
First Quarter
Jan 26
Full
Feb 3
Last Quarter

Hourly Weather History & Observations

Time (EST) Temp. Windchill Dew Point Humidity Pressure Visibility Wind Dir Wind Speed Gust Speed Precip Events Conditions
12:06 AM 42.8 °F - 28.4 °F 57% 30.17 in 10.0 mi Calm Calm - N/A   Overcast
12:27 AM 41.0 °F 39.0 °F 26.6 °F 57% 30.17 in 10.0 mi WNW 3.5 mph - N/A   Overcast
12:48 AM 41.0 °F 38.0 °F 28.4 °F 61% 30.18 in 10.0 mi WNW 4.6 mph - N/A   Overcast
1:33 AM 37.4 °F 33.8 °F 28.4 °F 70% 30.18 in 10.0 mi WNW 4.6 mph - N/A   Mostly Cloudy
1:54 AM 41.0 °F - 28.4 °F 61% 30.19 in 10.0 mi Calm Calm - N/A   Overcast
2:15 AM 37.4 °F 33.8 °F 30.2 °F 75% 30.20 in 10.0 mi WSW 4.6 mph - N/A   Overcast
2:36 AM 39.2 °F - 30.2 °F 70% 30.21 in 10.0 mi Calm Calm - N/A   Overcast
2:57 AM 41.0 °F 39.0 °F 30.2 °F 65% 30.21 in 10.0 mi West 3.5 mph - N/A   Overcast
3:18 AM 41.0 °F 36.4 °F 30.2 °F 65% 30.22 in 10.0 mi WNW 6.9 mph - N/A   Overcast
3:39 AM 41.0 °F 37.1 °F 30.2 °F 65% 30.22 in 10.0 mi WNW 5.8 mph - N/A   Overcast
4:00 AM 41.0 °F 36.4 °F 30.2 °F 65% 30.23 in 10.0 mi WNW 6.9 mph - N/A   Overcast
4:21 AM 41.0 °F 38.0 °F 28.4 °F 61% 30.24 in 10.0 mi West 4.6 mph - N/A   Overcast
4:45 AM 41.0 °F 35.2 °F 28.4 °F 61% 30.25 in 10.0 mi West 9.2 mph - N/A   Overcast
5:06 AM 41.0 °F 36.4 °F 28.4 °F 61% 30.26 in 10.0 mi WNW 6.9 mph - N/A   Mostly Cloudy
5:27 AM 41.0 °F 38.0 °F 28.4 °F 61% 30.27 in 10.0 mi WNW 4.6 mph - N/A   Mostly Cloudy
5:48 AM 39.2 °F 35.0 °F 28.4 °F 65% 30.28 in 10.0 mi WNW 5.8 mph - N/A   Overcast
6:09 AM 41.0 °F 37.1 °F 28.4 °F 61% 30.29 in 10.0 mi NW 5.8 mph - N/A   Overcast
6:51 AM 39.2 °F 34.2 °F 28.4 °F 65% 30.32 in 10.0 mi NW 6.9 mph - N/A   Mostly Cloudy
7:12 AM 37.4 °F 33.8 °F 26.6 °F 65% 30.33 in 10.0 mi NW 4.6 mph - N/A   Mostly Cloudy
7:33 AM 37.4 °F 34.9 °F 26.6 °F 65% 30.34 in 10.0 mi NW 3.5 mph - N/A   Mostly Cloudy
7:54 AM 37.4 °F 32.8 °F 28.4 °F 70% 30.35 in 10.0 mi NW 5.8 mph - N/A   Overcast
8:15 AM 41.0 °F 35.2 °F 26.6 °F 57% 30.36 in 10.0 mi WNW 9.2 mph - N/A   Overcast
8:39 AM 41.0 °F 35.2 °F 26.6 °F 57% 30.38 in 10.0 mi WNW 9.2 mph - N/A   Mostly Cloudy
9:00 AM 41.0 °F 35.2 °F 26.6 °F 57% 30.39 in 10.0 mi WNW 9.2 mph - N/A   Clear
9:21 AM 42.8 °F 38.0 °F 26.6 °F 53% 30.40 in 10.0 mi WNW 8.1 mph 17.3 mph N/A   Clear
9:42 AM 42.8 °F 37.5 °F 26.6 °F 53% 30.42 in 10.0 mi NW 9.2 mph 17.3 mph N/A   Scattered Clouds
10:03 AM 44.6 °F 38.8 °F 26.6 °F 49% 30.43 in 10.0 mi NW 11.5 mph 17.3 mph N/A   Mostly Cloudy
10:24 AM 44.6 °F 38.4 °F 26.6 °F 49% 30.44 in 10.0 mi WNW 12.7 mph 18.4 mph N/A   Scattered Clouds
10:45 AM 44.6 °F 39.2 °F 26.6 °F 49% 30.44 in 10.0 mi West 10.4 mph 16.1 mph N/A   Clear
11:06 AM 44.6 °F 39.7 °F 26.6 °F 49% 30.44 in 10.0 mi NW 9.2 mph 18.4 mph N/A   Clear
11:27 AM 44.6 °F 39.7 °F 24.8 °F 46% 30.43 in 10.0 mi NW 9.2 mph 17.3 mph N/A   Clear
11:48 AM 46.4 °F 41.9 °F 24.8 °F 43% 30.43 in 10.0 mi North 9.2 mph - N/A   Clear
12:09 PM 46.4 °F 42.4 °F 24.8 °F 43% 30.42 in 10.0 mi NW 8.1 mph 20.7 mph N/A   Scattered Clouds
12:54 PM 44.6 °F 40.2 °F 24.8 °F 46% 30.41 in 10.0 mi WNW 8.1 mph - N/A   Scattered Clouds
1:15 PM 44.6 °F 39.2 °F 24.8 °F 46% 30.42 in 10.0 mi NW 10.4 mph 16.1 mph N/A   Scattered Clouds
1:57 PM 44.6 °F 40.7 °F 24.8 °F 46% 30.42 in 10.0 mi NNW 6.9 mph - N/A   Clear
2:18 PM 44.6 °F 41.4 °F 23.0 °F 43% 30.42 in 10.0 mi West 5.8 mph - N/A   Clear
2:39 PM 44.6 °F 39.7 °F 23.0 °F 43% 30.42 in 10.0 mi NNW 9.2 mph - N/A   Clear
3:00 PM 44.6 °F 40.7 °F 23.0 °F 43% 30.42 in 10.0 mi North 6.9 mph - N/A   Clear
3:21 PM 42.8 °F 39.3 °F 23.0 °F 46% 30.42 in 10.0 mi NW 5.8 mph - N/A   Clear
3:42 PM 42.8 °F 40.1 °F 23.0 °F 46% 30.42 in 10.0 mi NNW 4.6 mph - N/A   Clear
4:03 PM 42.8 °F 40.1 °F 23.0 °F 46% 30.43 in 10.0 mi West 4.6 mph - N/A   Clear
4:24 PM 41.0 °F 37.1 °F 24.8 °F 53% 30.43 in 10.0 mi NW 5.8 mph - N/A   Clear
4:48 PM 39.2 °F - 24.8 °F 56% 30.44 in 10.0 mi Calm Calm - N/A   Clear
5:09 PM 37.4 °F - 24.8 °F 60% 30.45 in 10.0 mi Calm Calm - N/A   Clear
5:51 PM 33.8 °F - 23.0 °F 65% 30.45 in 10.0 mi Calm Calm - N/A   Clear
6:12 PM 32.0 °F - 23.0 °F 69% 30.45 in 10.0 mi Calm Calm - N/A   Clear
6:54 PM 32.0 °F - 23.0 °F 69% 30.46 in 10.0 mi Calm Calm - N/A   Clear
7:15 PM 30.2 °F - 23.0 °F 75% 30.45 in 10.0 mi Calm Calm - N/A   Clear
7:57 PM 28.4 °F - 23.0 °F 80% 30.45 in 10.0 mi Calm Calm - N/A   Clear
8:18 PM 28.4 °F - 23.0 °F 80% 30.45 in 10.0 mi Calm Calm - N/A   Clear
8:42 PM 28.4 °F - 23.0 °F 80% 30.46 in 10.0 mi Calm Calm - N/A   Clear
9:03 PM 26.6 °F - 23.0 °F 86% 30.46 in 10.0 mi Calm Calm - N/A   Clear
9:24 PM 26.6 °F - 23.0 °F 86% 30.46 in 10.0 mi Calm Calm - N/A   Clear
9:45 PM 26.6 °F - 23.0 °F 86% 30.45 in 10.0 mi Calm Calm - N/A   Clear
10:06 PM 26.6 °F - 23.0 °F 86% 30.45 in 10.0 mi Calm Calm - N/A   Clear
10:27 PM 26.6 °F - 23.0 °F 86% 30.45 in 10.0 mi Calm Calm - N/A   Clear
10:48 PM 26.6 °F - 23.0 °F 86% 30.45 in 10.0 mi Calm Calm - N/A   Clear
11:09 PM 26.6 °F - 23.0 °F 86% 30.44 in 10.0 mi Calm Calm - N/A   Clear
11:30 PM 24.8 °F - 23.0 °F 93% 30.44 in 10.0 mi Calm Calm - N/A   Clear
11:51 PM 24.8 °F - 21.2 °F 86% 30.44 in 10.0 mi Calm Calm - N/A   Clear